Abspann, Germany

8:17 AM CEST on April 25, 2017 (GMT +0200)
Kemnather Straße | | Change Station

Elev 1712 ft 49.84 °N, 12.04 °E | Updated 8 minutes ago

Partly Cloudy
Partly Cloudy
39.0 °F
Feels Like 39 °F
N
0.0
Wind Variable Wind from North
Gusts 0.6 mph

Today
High -- | Low -- °F
--% Chance of Precip.
Yesterday
High -- | Low -- °F
Precip. -- in
Pressure 29.71 in
Visibility 6.2 miles
Clouds Clear
Windchill 39 °F
Dew Point 34 °F
Humidity 81%
Rainfall 0.00 in
Snow Depth Not available.
5:59 AM 8:21 PM
Waning Crescent, 2% visible
METAR ETIC 250558Z AUTO 00000KT 9999 CLR 03/02 A2968 RMK AO2 SLP059 53000
Pressure 29.71 in
Visibility 6.2 miles
Clouds Clear
Windchill 39 °F
Dew Point 34 °F
Humidity 81%
Rainfall 0.00 in
Snow Depth Not available.
5:59 AM 8:21 PM
Waning Crescent, 2% visible
METAR ETIC 250558Z AUTO 00000KT 9999 CLR 03/02 A2968 RMK AO2 SLP059 53000

Get Severe Weather Alerts

Thanks for signing up!

Be on the lookout for a verification email in your inbox.

You'll start receiving the daily forecast at 8 AM.

×

10-Day Weather Forecast

×

Almanac

Astronomy

Apr. 25, 2017 Rise Set
Actual Time
Civil Twilight
Nautical Twilight
Astronomical Twilight
Moon
Length of Visible Light
Length of Day
Tomorrow will be .
, % of the Moon is Illuminated

Today's Extremes

Country Highs Country Lows

Community

WunderPhotos

WunderBlog® & News

Nearby

Air Quality

  Air Quality AQ Index Pollutant
Not available.

Snow Depth

Station Depth Elevation

Earthquake Activity

City Distance Mag. Time & Date
Minimum magnitude displayed is 2.5.

Coastal Water Temperatures

Place Temperature

Stations

Nearby Weather Stations

Station Location Temp. Windchill Dew Point Humidity Wind Precip. Elev Updated Type